User: anonymous   Login
Location: Banios
(43.0451°N, 0.2335°E)
Time: 03:31:18
(UTC+00:00)
Language:

FALCON 9 DEB - Orbit

View from above orbital plane
View from above orbital plane
View from above satellite
View from above satellite

Ground track
Ground track

The orbit data is extracted from the following two-line orbital elements,

1 46086U 20055BM  21106.59041176  .00012536  00000-0  13610-3 0  9990
2 46086  53.0065 139.6336 0014903  32.2464 327.9458 15.63835742 44004
Epoch (UTC): 16 April 2021 14:10:11
Eccentricity: 0.0014903
inclination: 53.0065°
perigee height: 366 km
apogee height: 386 km
right ascension of ascending node: 139.6336°
argument of perigee: 32.2464°
revolutions per day: 15.63835742
mean anomaly at epoch: 327.9458°
orbit number at epoch: 4400

The dashed part of the orbit path shows where the satellite is in the earth's shadow,  

DLR